Irving, TX

1:47 PM CST on February 06, 2016 (GMT -0600)
Dallas-Fort Worth International

Weather History for KDFW - June, 2014

Change the Weather History Date:

Sunday, June 15, 2014

  Actual Average Record
Temperature  
Mean Temperature 85 °F 81 °F  
Max Temperature 94 °F 91 °F 105 °F (1924)
Min Temperature 76 °F 71 °F 59 °F (1933)
Degree Days  
Heating Degree Days 0 0  
Month to date heating degree days 0 0  
Since 1 June heating degree days 0 0  
Since 1 July heating degree days 2603 2284  
Cooling Degree Days 20 16  
Month to date cooling degree days 254 224  
Year to date cooling degree days 730 646  
Since 1 June cooling degree days 254 224  
Growing Degree Days 34 (Base 50)    
Moisture  
Dew Point 70 °F    
Average Humidity 61    
Maximum Humidity 76    
Minimum Humidity 46    
Precipitation  
Precipitation 0.00 in 0.13 in 3.31 in (1935)
Month to date precipitation 0.96 2.06  
Year to date precipitation 8.29 18.31  
Sea Level Pressure  
Sea Level Pressure 29.83 in    
Wind  
Wind Speed 19 mph (South)    
Max Wind Speed 29 mph    
Max Gust Speed 38 mph    
Visibility 10 miles    
Events      
T = Trace of Precipitation, MM = Missing Value Source: NWS Daily Summary

Daily Weather History Graph

Daily Weather History Graph

Search for Another Location

Airport or City:

Trip Planner

Search our weather history database for the weather conditions in past years. The results will help you decide how hot, cold, wet, or windy it might be!

Date:

Astronomy

Jun. 15, 2014 Rise Set
Actual Time 6:19 AM CDT 8:38 PM CDT
Civil Twilight 5:50 AM CDT 9:06 PM CDT
Nautical Twilight 5:15 AM CDT 9:41 PM CDT
Astronomical Twilight 4:37 AM CDT 10:20 PM CDT
Moon 10:58 PM CDT (6/15) 9:06 AM CDT (6/15)
Length of Visible Light 15h 16m
Length of Day
14h 18m
Waning Gibbous, 91% of the Moon is Illuminated
Jun 15
Waning Gibbous
Jun 19
Last Quarter
Jun 27
New
Jul 5
First Quarter
Jul 12
Full

Hourly Weather History & Observations

Time (CDT) Temp. Heat Index Dew Point Humidity Pressure Visibility Wind Dir Wind Speed Gust Speed Precip Events Conditions
12:53 AM 81.0 °F 84.9 °F 71.1 °F 72% 29.79 in 10.0 mi South 13.8 mph 23.0 mph N/A   Partly Cloudy
1:53 AM 80.1 °F 83.6 °F 71.1 °F 74% 29.78 in 10.0 mi South 18.4 mph - N/A   Partly Cloudy
2:53 AM 79.0 °F - 70.0 °F 74% 29.76 in 10.0 mi South 20.7 mph 27.6 mph N/A   Partly Cloudy
3:53 AM 78.1 °F - 70.0 °F 76% 29.76 in 10.0 mi South 19.6 mph 27.6 mph N/A   Partly Cloudy
4:53 AM 77.0 °F - 70.0 °F 79% 29.77 in 10.0 mi South 17.3 mph - N/A   Scattered Clouds
5:28 AM 77.0 °F - 70.0 °F 79% 29.80 in 10.0 mi South 21.9 mph 28.8 mph N/A   Mostly Cloudy
5:53 AM 77.0 °F - 70.0 °F 79% 29.78 in 10.0 mi South 23.0 mph 29.9 mph N/A   Mostly Cloudy
6:53 AM 77.0 °F - 69.1 °F 76% 29.82 in 10.0 mi South 18.4 mph - N/A   Overcast
7:53 AM 79.0 °F - 70.0 °F 74% 29.81 in 10.0 mi South 20.7 mph 29.9 mph N/A   Overcast
8:53 AM 80.1 °F 83.2 °F 70.0 °F 71% 29.84 in 10.0 mi South 18.4 mph - N/A   Overcast
9:53 AM 82.0 °F 85.9 °F 70.0 °F 67% 29.87 in 10.0 mi South 16.1 mph - N/A   Overcast
10:53 AM 84.9 °F 90.1 °F 71.1 °F 63% 29.87 in 10.0 mi South 18.4 mph 28.8 mph N/A   Mostly Cloudy
11:53 AM 87.1 °F 91.3 °F 69.1 °F 55% 29.87 in 10.0 mi South 17.3 mph 26.5 mph N/A   Scattered Clouds
12:53 PM 91.0 °F 95.6 °F 69.1 °F 48% 29.87 in 10.0 mi South 21.9 mph 32.2 mph N/A   Scattered Clouds
1:53 PM 91.0 °F 95.6 °F 69.1 °F 48% 29.86 in 10.0 mi SSE 19.6 mph 29.9 mph N/A   Scattered Clouds
2:53 PM 91.9 °F 96.9 °F 69.1 °F 47% 29.86 in 10.0 mi SSE 24.2 mph 32.2 mph N/A   Scattered Clouds
3:53 PM 93.0 °F 99.0 °F 70.0 °F 47% 29.85 in 10.0 mi South 20.7 mph 28.8 mph N/A   Scattered Clouds
4:53 PM 93.0 °F 97.9 °F 69.1 °F 45% 29.83 in 10.0 mi SSE 25.3 mph 31.1 mph N/A   Partly Cloudy
5:53 PM 91.0 °F 95.6 °F 69.1 °F 48% 29.83 in 10.0 mi SSE 21.9 mph 31.1 mph N/A   Scattered Clouds
6:53 PM 91.0 °F 95.2 °F 68.0 °F 47% 29.83 in 10.0 mi South 21.9 mph 26.5 mph N/A   Scattered Clouds
7:53 PM 89.1 °F 92.9 °F 68.0 °F 50% 29.83 in 10.0 mi SSE 16.1 mph - N/A   Partly Cloudy
8:53 PM 87.1 °F 91.3 °F 69.1 °F 55% 29.85 in 10.0 mi SSE 13.8 mph - N/A   Scattered Clouds
9:53 PM 86.0 °F 90.7 °F 70.0 °F 59% 29.86 in 10.0 mi SSE 13.8 mph - N/A   Mostly Cloudy
10:53 PM 84.9 °F 88.8 °F 69.1 °F 59% 29.90 in 10.0 mi South 13.8 mph - N/A   Mostly Cloudy
11:53 PM 84.0 °F 87.8 °F 69.1 °F 61% 29.91 in 10.0 mi South 11.5 mph - N/A   Mostly Cloudy